�������l�o���
Date,Time,MP-1(��Sv/h),MP-2(��Sv/h),MP-3(��Sv/h),MP-4(��Sv/h),MP-5(��Sv/h),MP-6(��Sv/h),MP-7(��Sv/h),MP-8(��Sv/h),����,����(m/s),���J
2017/09/22,00:00,0.951,1.511,0.982,1.807,1.235,0.516,0.944,0.870,��,2.8,��
2017/09/22,00:10,0.952,1.513,0.981,1.805,1.233,0.516,0.945,0.869,��,2.9,��
2017/09/22,00:20,0.950,1.510,0.981,1.806,1.237,0.518,0.945,0.868,��,2.8,��
2017/09/22,00:30,0.952,1.513,0.981,1.808,1.236,0.514,0.943,0.867,�쐼,0.9,��
2017/09/22,00:40,0.950,1.511,0.980,1.806,1.236,0.515,0.943,0.867,��,1.9,��
2017/09/22,00:50,0.952,1.510,0.981,1.803,1.236,0.515,0.943,0.869,-,CALM,��
2017/09/22,01:00,0.950,1.510,0.982,1.807,1.236,0.516,0.945,0.869,�k��,1.1,��
2017/09/22,01:10,0.952,1.510,0.981,1.808,1.235,0.516,0.944,0.871,�k,1.4,��
2017/09/22,01:20,0.951,1.507,0.981,1.809,1.234,0.516,0.944,0.869,�k�k��,0.9,��
2017/09/22,01:30,0.952,1.511,0.981,1.808,1.235,0.517,0.946,0.868,�k�k��,0.8,��
2017/09/22,01:40,0.950,1.508,0.981,1.807,1.236,0.516,0.942,0.868,-,CALM,��
2017/09/22,01:50,0.947,1.509,0.980,1.808,1.234,0.516,0.944,0.869,-,CALM,��
2017/09/22,02:00,0.950,1.510,0.980,1.807,1.236,0.514,0.944,0.868,�k�k��,0.6,��
2017/09/22,02:10,0.950,1.513,0.979,1.805,1.234,0.515,0.943,0.868,�k��,0.9,��
2017/09/22,02:20,0.948,1.510,0.979,1.807,1.233,0.515,0.944,0.870,�쓌,0.6,��
2017/09/22,02:30,0.949,1.511,0.981,1.807,1.235,0.516,0.944,0.867,-,CALM,��
2017/09/22,02:40,0.948,1.512,0.980,1.806,1.235,0.514,0.944,0.869,�k,1.2,��
2017/09/22,02:50,0.951,1.508,0.979,1.805,1.236,0.514,0.943,0.867,�k�k��,1.7,��
2017/09/22,03:00,0.948,1.510,0.980,1.807,1.237,0.514,0.943,0.866,�k�k��,2.0,��
2017/09/22,03:10,0.950,1.508,0.981,1.807,1.237,0.515,0.944,0.867,�k��,0.9,��
2017/09/22,03:20,0.948,1.509,0.980,1.805,1.234,0.516,0.945,0.868,���k��,0.6,��
2017/09/22,03:30,0.948,1.511,0.981,1.804,1.234,0.514,0.944,0.868,�k��,0.6,��
2017/09/22,03:40,0.950,1.511,0.981,1.806,1.234,0.515,0.943,0.867,�k�k��,1.2,��
2017/09/22,03:50,0.950,1.508,0.981,1.808,1.236,0.513,0.944,0.869,�k�k��,0.6,��
2017/09/22,04:00,0.947,1.510,0.983,1.806,1.234,0.515,0.942,0.869,�k�k��,1.2,��
2017/09/22,04:10,0.948,1.507,0.980,1.807,1.236,0.515,0.945,0.868,�k��,0.9,��
2017/09/22,04:20,0.949,1.510,0.980,1.808,1.234,0.516,0.943,0.868,���k��,1.1,��
2017/09/22,04:30,0.950,1.510,0.978,1.805,1.234,0.514,0.944,0.868,�k��,0.9,��
2017/09/22,04:40,0.948,1.510,0.980,1.806,1.235,0.516,0.945,0.867,��,0.9,��
2017/09/22,04:50,0.948,1.511,0.981,1.808,1.237,0.516,0.944,0.868,���k��,1.1,��
2017/09/22,05:00,0.947,1.509,0.980,1.806,1.233,0.515,0.942,0.868,��,0.9,��
2017/09/22,05:10,0.949,1.507,0.980,1.806,1.236,0.514,0.944,0.868,���k��,1.2,��
2017/09/22,05:20,0.949,1.510,0.980,1.805,1.233,0.514,0.944,0.869,��,1.2,��
2017/09/22,05:30,0.948,1.510,0.979,1.804,1.235,0.514,0.944,0.868,���k��,1.7,��
2017/09/22,05:40,0.947,1.509,0.979,1.804,1.234,0.516,0.942,0.867,���k��,1.2,��
2017/09/22,05:50,0.947,1.508,0.979,1.805,1.234,0.513,0.943,0.867,-,CALM,��
2017/09/22,06:00,0.947,1.510,0.981,1.806,1.234,0.514,0.944,0.869,-,CALM,��
2017/09/22,06:10,0.948,1.507,0.980,1.804,1.234,0.514,0.943,0.867,-,CALM,��
2017/09/22,06:20,0.949,1.509,0.979,1.806,1.236,0.514,0.943,0.867,-,CALM,��
2017/09/22,06:30,0.950,1.509,0.980,1.806,1.233,0.513,0.943,0.868,��쓌,0.8,��
2017/09/22,06:40,0.948,1.510,0.980,1.805,1.234,0.512,0.943,0.867,��,1.2,��
2017/09/22,06:50,0.948,1.507,0.980,1.804,1.235,0.514,0.942,0.867,-,CALM,��
2017/09/22,07:00,0.950,1.509,0.981,1.805,1.233,0.514,0.941,0.867,�쐼,0.9,��
2017/09/22,07:10,0.948,1.511,0.978,1.804,1.234,0.513,0.943,0.868,�쐼,0.6,��
2017/09/22,07:20,0.951,1.511,0.979,1.806,1.234,0.513,0.944,0.867,�쐼,0.6,��
2017/09/22,07:30,0.951,1.511,0.981,1.808,1.236,0.513,0.943,0.868,��,0.6,��
2017/09/22,07:40,0.950,1.510,0.981,1.808,1.233,0.514,0.943,0.867,�쐼,0.8,��
2017/09/22,07:50,0.952,1.511,0.981,1.806,1.237,0.513,0.943,0.868,��,1.2,��
2017/09/22,08:00,0.950,1.513,0.979,1.807,1.231,0.514,0.943,0.869,-,CALM,��
2017/09/22,08:10,0.949,1.510,0.982,1.807,1.233,0.513,0.942,0.868,�쓌,0.8,��
2017/09/22,08:20,0.950,1.509,0.980,1.806,1.233,0.513,0.940,0.869,�쓌,1.2,��
2017/09/22,08:30,0.949,1.507,0.978,1.810,1.232,0.513,0.944,0.867,�쓌,1.2,��
2017/09/22,08:40,0.950,1.510,0.979,1.808,1.233,0.512,0.942,0.867,�쓌,1.5,��
2017/09/22,08:50,0.949,1.509,0.979,1.809,1.233,0.513,0.943,0.868,���쓌,1.7,��
2017/09/22,09:00,0.949,1.512,0.978,1.808,1.235,0.512,0.940,0.865,�쓌,1.5,��
2017/09/22,09:10,0.948,1.511,0.981,1.811,1.234,0.512,0.943,0.866,���쓌,2.0,��
2017/09/22,09:20,0.949,1.513,0.979,1.811,1.234,0.512,0.943,0.865,���쓌,1.9,��
2017/09/22,09:30,0.949,1.512,0.979,1.810,1.235,0.514,0.945,0.864,��,1.9,��
2017/09/22,09:40,0.950,1.512,0.977,1.810,1.233,0.513,0.944,0.867,���쓌,2.3,��
2017/09/22,09:50,0.950,1.516,0.977,1.808,1.236,0.513,0.944,0.865,���쓌,2.3,��
2017/09/22,10:00,0.951,1.512,0.978,1.809,1.237,0.513,0.942,0.865,�쓌,2.0,��
2017/09/22,10:10,0.951,1.514,0.980,1.809,1.237,0.513,0.942,0.865,�쓌,2.3,��
2017/09/22,10:20,0.952,1.516,0.978,1.811,1.236,0.513,0.944,0.866,�쓌,2.3,��
2017/09/22,10:30,0.952,1.516,0.977,1.809,1.237,0.514,0.942,0.866,�쓌,2.5,��
2017/09/22,10:40,0.952,1.516,0.980,1.812,1.238,0.514,0.942,0.866,�쓌,1.9,��
2017/09/22,10:50,0.952,1.515,0.981,1.809,1.235,0.514,0.942,0.867,���쓌,2.9,��
2017/09/22,11:00,0.953,1.515,0.982,1.807,1.238,0.514,0.943,0.866,���쓌,2.6,��
2017/09/22,11:10,0.949,1.521,0.981,1.812,1.236,0.513,0.943,0.867,�쓌,2.0,��
2017/09/22,11:20,0.951,1.516,0.981,1.813,1.238,0.515,0.945,0.867,�쓌,2.6,��
2017/09/22,11:30,0.953,1.518,0.981,1.813,1.241,0.514,0.943,0.866,�쓌,3.4,��
2017/09/22,11:40,0.951,1.520,0.982,1.811,1.240,0.514,0.944,0.867,�쓌,3.8,��
2017/09/22,11:50,0.953,1.520,0.980,1.813,1.239,0.514,0.945,0.868,�쓌,3.2,��
2017/09/22,12:00,0.955,1.517,0.981,1.811,1.243,0.514,0.943,0.866,�쓌,3.2,��
2017/09/22,12:10,0.954,1.518,0.982,1.810,1.240,0.514,0.945,0.865,��쓌,3.7,��
2017/09/22,12:20,0.955,1.519,0.985,1.810,1.242,0.514,0.944,0.865,�쓌,3.4,��
2017/09/22,12:30,0.954,1.521,0.984,1.811,1.242,0.515,0.944,0.868,��쓌,3.2,��
2017/09/22,12:40,0.954,1.522,0.984,1.813,1.243,0.514,0.944,0.867,�쓌,3.0,��
2017/09/22,12:50,0.954,1.522,0.983,1.816,1.241,0.515,0.943,0.868,�쓌,3.1,��
2017/09/22,13:00,0.953,1.520,0.983,1.812,1.240,0.514,0.945,0.869,�쓌,3.6,��
2017/09/22,13:10,0.956,1.522,0.983,1.814,1.245,0.514,0.945,0.869,�쓌,4.4,��
2017/09/22,13:20,0.952,1.523,0.982,1.810,1.243,0.516,0.943,0.868,��쓌,3.7,��
2017/09/22,13:30,0.953,1.519,0.985,1.813,1.242,0.513,0.946,0.867,��쓌,4.0,��
2017/09/22,13:40,0.953,1.520,0.983,1.812,1.242,0.515,0.945,0.867,�쓌,3.9,��
2017/09/22,13:50,0.956,1.521,0.980,1.813,1.244,0.516,0.945,0.867,�쓌,3.6,��
2017/09/22,14:00,0.954,1.523,0.985,1.814,1.241,0.515,0.944,0.865,��쓌,3.7,��
2017/09/22,14:10,0.955,1.521,0.984,1.815,1.242,0.516,0.943,0.866,��쓌,3.6,��
2017/09/22,14:20,0.954,1.519,0.985,1.813,1.243,0.513,0.946,0.867,��쓌,4.1,��
2017/09/22,14:30,0.956,1.519,0.983,1.813,1.243,0.515,0.943,0.867,��쓌,4.0,��
2017/09/22,14:40,0.954,1.518,0.984,1.814,1.241,0.515,0.944,0.866,��쓌,4.0,��
2017/09/22,14:50,0.953,1.519,0.984,1.814,1.240,0.516,0.945,0.866,��쓌,3.8,��
2017/09/22,15:00,0.955,1.519,0.983,1.813,1.242,0.515,0.944,0.867,��쓌,3.3,��
2017/09/22,15:10,0.952,1.518,0.986,1.813,1.243,0.515,0.943,0.868,��쓌,2.3,��
2017/09/22,15:20,0.951,1.520,0.984,1.813,1.241,0.515,0.944,0.867,��,3.2,��
2017/09/22,15:30,0.955,1.518,0.984,1.814,1.242,0.516,0.945,0.867,��쓌,3.0,��
2017/09/22,15:40,0.954,1.522,0.984,1.815,1.241,0.516,0.944,0.869,��,3.4,��
2017/09/22,15:50,0.954,1.519,0.982,1.815,1.243,0.517,0.944,0.868,��쓌,4.0,��
2017/09/22,16:00,0.954,1.519,0.982,1.815,1.243,0.516,0.944,0.869,��쓌,3.8,��
2017/09/22,16:10,0.954,1.520,0.983,1.814,1.243,0.516,0.943,0.869,��쓌,3.8,��
2017/09/22,16:20,0.956,1.519,0.982,1.815,1.243,0.514,0.944,0.868,��쓌,3.7,��
2017/09/22,16:30,0.953,1.517,0.982,1.815,1.240,0.514,0.941,0.868,��,3.8,��
2017/09/22,16:40,0.954,1.519,0.983,1.814,1.242,0.516,0.944,0.866,��,3.3,��
2017/09/22,16:50,0.955,1.520,0.986,1.816,1.243,0.515,0.945,0.866,��쓌,4.1,�L
2017/09/22,17:00,0.955,1.520,0.984,1.816,1.239,0.516,0.944,0.867,��쓌,3.6,�L
2017/09/22,17:10,0.954,1.520,0.986,1.815,1.241,0.517,0.944,0.867,��쓌,3.9,�L
2017/09/22,17:20,0.954,1.517,0.984,1.816,1.241,0.516,0.942,0.871,��쓌,2.6,��
2017/09/22,17:30,0.957,1.523,0.985,1.813,1.243,0.516,0.944,0.869,��쓌,3.1,�L
2017/09/22,17:40,0.955,1.519,0.984,1.814,1.244,0.516,0.944,0.870,��쓌,1.7,��
2017/09/22,17:50,0.957,1.521,0.988,1.813,1.242,0.517,0.943,0.870,��쓌,1.7,�L
2017/09/22,18:00,0.955,1.523,0.988,1.815,1.245,0.517,0.944,0.868,��쓌,1.4,�L
2017/09/22,18:10,0.954,1.522,0.986,1.816,1.241,0.517,0.943,0.870,��,1.7,�L
2017/09/22,18:20,0.956,1.523,0.987,1.814,1.241,0.516,0.943,0.871,��쐼,1.7,�L
2017/09/22,18:30,0.957,1.520,0.986,1.814,1.244,0.518,0.944,0.870,���쐼,1.5,�L
2017/09/22,18:40,0.957,1.522,0.986,1.815,1.243,0.519,0.945,0.869,�쐼,0.9,�L
2017/09/22,18:50,0.956,1.520,0.988,1.815,1.241,0.518,0.944,0.869,�쐼,0.9,��
2017/09/22,19:00,0.955,1.520,0.987,1.811,1.243,0.518,0.946,0.869,��,1.5,�L
2017/09/22,19:10,0.955,1.520,0.987,1.813,1.244,0.518,0.944,0.871,��쐼,1.1,�L
2017/09/22,19:20,0.956,1.519,0.986,1.814,1.243,0.518,0.946,0.870,��,0.8,�L
2017/09/22,19:30,0.956,1.520,0.988,1.814,1.241,0.518,0.946,0.869,-,CALM,�L
2017/09/22,19:40,0.954,1.519,0.985,1.814,1.244,0.519,0.944,0.868,�쓌,1.1,��
2017/09/22,19:50,0.955,1.519,0.984,1.814,1.244,0.520,0.943,0.869,��쓌,1.4,��
2017/09/22,20:00,0.953,1.516,0.985,1.812,1.244,0.518,0.945,0.871,�쓌,1.7,�L
2017/09/22,20:10,0.956,1.520,0.986,1.814,1.245,0.517,0.945,0.868,��쓌,1.4,��
2017/09/22,20:20,0.953,1.521,0.982,1.813,1.241,0.518,0.945,0.868,��,1.5,��
2017/09/22,20:30,0.953,1.519,0.986,1.814,1.243,0.517,0.945,0.868,��,1.9,��
2017/09/22,20:40,0.954,1.518,0.986,1.815,1.240,0.517,0.946,0.868,��쓌,1.7,��
2017/09/22,20:50,0.953,1.518,0.986,1.817,1.242,0.517,0.945,0.866,��,1.4,��
2017/09/22,21:00,0.954,1.520,0.986,1.814,1.241,0.517,0.945,0.869,��쐼,1.2,��
2017/09/22,21:10,0.955,1.518,0.985,1.812,1.243,0.517,0.945,0.869,��,1.9,��
2017/09/22,21:20,0.954,1.518,0.983,1.813,1.243,0.517,0.943,0.868,��쓌,1.5,��
2017/09/22,21:30,0.954,1.518,0.987,1.813,1.242,0.518,0.943,0.869,�쓌,2.0,��
2017/09/22,21:40,0.953,1.518,0.986,1.813,1.240,0.517,0.944,0.870,�쓌,1.9,��
2017/09/22,21:50,0.954,1.519,0.985,1.814,1.243,0.517,0.943,0.870,�쓌,2.0,�L
2017/09/22,22:00,0.955,1.518,0.984,1.812,1.243,0.517,0.944,0.870,�쓌,2.3,�L
2017/09/22,22:10,0.954,1.517,0.988,1.813,1.239,0.518,0.944,0.868,�쓌,1.7,�L
2017/09/22,22:20,0.953,1.517,0.984,1.812,1.242,0.518,0.945,0.869,�쓌,3.2,��
2017/09/22,22:30,0.952,1.518,0.986,1.813,1.240,0.517,0.944,0.870,��쓌,2.0,��
2017/09/22,22:40,0.954,1.515,0.986,1.809,1.240,0.517,0.944,0.869,��쓌,3.3,��
2017/09/22,22:50,0.954,1.516,0.988,1.812,1.239,0.517,0.945,0.866,��쓌,3.7,��
2017/09/22,23:00,0.954,1.515,0.984,1.813,1.242,0.517,0.945,0.868,��쓌,5.1,��
2017/09/22,23:10,0.954,1.516,0.985,1.810,1.240,0.515,0.946,0.869,��쓌,4.7,��
2017/09/22,23:20,0.953,1.517,0.985,1.809,1.240,0.516,0.943,0.870,��쓌,4.6,�L
2017/09/22,23:30,0.953,1.516,0.986,1.812,1.240,0.517,0.945,0.871,��쓌,5.8,��
2017/09/22,23:40,0.953,1.517,0.986,1.812,1.243,0.517,0.945,0.869,��쓌,6.2,�L
2017/09/22,23:50,0.952,1.514,0.987,1.809,1.241,0.516,0.946,0.870,��,4.4,�L
